FW1396 Weather Reports


Display with metric or nautical units.
time (UTC)temp
F
wind
direction
speed
MPH
gust
MPH
rain 1hr
in
rain 24hr
in
rain mn
in
humidity
%
barometer
mb
20260903184232 98 257 4.0 13.0 0.00 0.00 0.00 48 997.5
20260903183732 99 261 6.0 13.0 0.00 0.00 0.00 47 997.6
20260903183232 99 266 5.0 13.0 0.00 0.00 0.00 47 997.6
20260903182733 99 259 4.0 9.0 0.00 0.00 0.00 47 997.6
20260903182231 99 243 4.0 7.0 0.00 0.00 0.00 47 997.6
20260903181732 99 192 3.0 5.0 0.00 0.00 0.00 47 997.7
20260903181233 98 271 2.0 5.0 0.00 0.00 0.00 48 997.8
20260903181001 98 180 3.0 9.0 0.00 0.00 0.00 48 997.8
20260903180232 98 243 4.0 12.0 0.00 0.00 0.00 48 998.0
20260903180010 97 248 5.0 13.0 0.00 0.00 0.00 47 998.0
20260903175231 97 250 5.0 13.0 0.00 0.00 0.00 49 998.0
20260903174730 98 197 7.0 10.0 0.00 0.00 0.00 48 998.1
20260903174231 97 274 2.0 11.0 0.00 0.00 0.00 50 998.1
20260903173730 97 255 9.0 12.0 0.00 0.00 0.00 49 998.2
20260903173233 97 248 8.0 12.0 0.00 0.00 0.00 50 998.3
20260903172731 96 265 5.0 13.0 0.00 0.00 0.00 51 998.3
20260903171731 98 261 8.0 13.0 0.00 0.00 0.00 50 998.5
20260903171229 97 275 3.0 11.0 0.00 0.00 0.00 51 998.5
20260903170729 97 207 5.0 11.0 0.00 0.00 0.00 50 998.6
20260903170229 97 248 5.0 10.0 0.00 0.00 0.00 51 998.7
20260903165730 96 257 4.0 12.0 0.00 0.00 0.00 51 998.7
20260903165230 96 251 8.0 12.0 0.00 0.00 0.00 51 998.7
20260903164731 96 243 3.0 12.0 0.00 0.00 0.00 52 998.8
20260903164232 96 252 5.0 13.0 0.00 0.00 0.00 52 998.8
20260903163730 96 252 4.0 13.0 0.00 0.00 0.00 54 998.7
20260903163501 95 247 6.0 13.0 0.00 0.00 0.00 53 998.9
20260903162729 95 255 5.0 13.0 0.00 0.00 0.00 54 998.9
20260903162228 95 250 6.0 15.0 0.00 0.00 0.00 54 998.9
20260903161728 95 251 9.0 15.0 0.00 0.00 0.00 53 999.0
20260903161502 95 238 10.0 15.0 0.00 0.00 0.00 55 999.1
20260903160731 94 265 7.0 11.0 0.00 0.00 0.00 56 999.2
20260903160230 94 234 3.0 10.0 0.00 0.00 0.00 57 999.2
20260903155728 94 250 2.0 5.0 0.00 0.00 0.00 59 999.2
20260903155459 93 0 2.0 5.0 0.00 0.00 0.00 61 999.2
20260903154507 93 228 3.0 5.0 0.00 0.00 0.00 62 999.3
20260903154003 92 172 2.0 5.0 0.00 0.00 0.00 63 999.3
20260903153227 92 272 1.0 5.0 0.00 0.00 0.00 64 999.3
20260903152729 91 274 2.0 5.0 0.00 0.00 0.00 65 999.3
20260903151729 90 231 4.0 7.0 0.00 0.00 0.00 66 999.4
20260903151227 90 244 4.0 6.0 0.00 0.00 0.00 66 999.4
20260903150728 89 220 4.0 5.0 0.00 0.00 0.00 67 999.3
20260903150227 89 255 2.0 5.0 0.00 0.00 0.00 69 999.3
20260903145726 88 209 0.0 0.0 0.00 0.00 0.00 70 999.4
20260903145226 87 250 0.0 0.0 0.00 0.00 0.00 71 999.4
20260903144728 0 0.0 0.0 0.00 0.00 0.00 999.4
20260903144457 86 193 0.0 0.0 0.00 0.00 0.00 73 999.4
20260903143726 86 193 0.0 0.0 0.00 0.00 0.00 73 999.5
20260903143225 86 193 0.0 0.0 0.00 0.00 0.00 74 999.6
20260903142725 85 193 0.0 0.0 0.00 0.00 0.00 76 999.6
20260903142226 84 193 0.0 0.0 0.00 0.00 0.00 77 999.6
20260903141725 84 193 0.0 0.0 0.00 0.00 0.00 77 999.6
20260903141224 83 251 0.0 0.0 0.00 0.00 0.00 78 999.7
20260903140724 82 251 0.0 0.0 0.00 0.00 0.00 80 999.8
20260903140224 81 251 0.0 0.0 0.00 0.00 0.00 81 999.7
20260903135726 80 251 0.0 0.0 0.00 0.00 0.00 83 999.7
20260903135224 79 251 0.0 0.0 0.00 0.00 0.00 85 999.9
20260903134723 79 251 0.0 0.0 0.00 0.00 0.00 85 999.9
20260903134224 78 175 0.0 0.0 0.00 0.00 0.00 86 1000.0
20260903133723 78 173 0.0 0.0 0.00 0.00 0.00 88 999.9
20260903133223 77 173 0.0 0.0 0.00 0.00 0.00 89 1000.0
20260903132723 76 173 0.0 0.0 0.00 0.00 0.00 90 1000.0
20260903132224 75 173 0.0 0.0 0.00 0.00 0.00 93 1000.0
20260903131723 75 173 0.0 0.0 0.00 0.00 0.00 93 999.9
20260903131221 75 173 0.0 0.0 0.00 0.00 0.00 93 1000.0
20260903130722 74 173 0.0 0.0 0.00 0.00 0.00 93 1000.0
20260903125726 74 173 0.0 0.0 0.00 0.00 0.00 94 1000.0
20260903125221 73 173 0.0 0.0 0.00 0.00 0.00 95 1000.1
20260903124721 73 173 0.0 0.0 0.00 0.00 0.00 95 1000.1
20260903124221 73 173 0.0 0.0 0.00 0.00 0.00 95 1000.0
20260903123720 72 173 0.0 0.0 0.00 0.00 0.00 94 999.9
20260903123221 72 173 0.0 0.0 0.00 0.00 0.00 94 1000.0
20260903122720 72 173 0.0 0.0 0.00 0.00 0.00 94 1000.0
20260903122220 72 173 0.0 0.0 0.00 0.00 0.00 94 999.9
20260903121721 72 173 0.0 0.0 0.00 0.00 0.00 93 999.9
20260903121220 72 173 0.0 0.0 0.00 0.00 0.00 93 999.9
20260903120718 72 173 0.0 0.0 0.00 0.00 0.00 93 999.9
20260903120221 72 173 0.0 0.0 0.00 0.00 0.00 93 999.8
20260903115722 72 173 0.0 0.0 0.00 0.00 0.00 93 999.6
20260903115219 72 173 0.0 0.0 0.00 0.00 0.00 93 999.6
20260903114719 72 173 0.0 0.0 0.00 0.00 0.00 93 999.6
20260903114220 72 173 0.0 0.0 0.00 0.00 0.00 93 999.5
20260903113720 72 173 0.0 0.0 0.00 0.00 0.00 93 999.6
20260903113220 72 173 0.0 0.0 0.00 0.00 0.00 93 999.5
20260903112951 72 173 0.0 0.0 0.00 0.00 0.00 93 999.5
20260903112218 72 173 0.0 0.0 0.00 0.00 0.00 92 999.5
20260903111719 72 173 0.0 0.0 0.00 0.00 0.00 92 999.4
20260903111219 72 173 0.0 0.0 0.00 0.00 0.00 92 999.4
20260903110719 72 173 0.0 0.0 0.00 0.00 0.00 92 999.5
20260903110220 72 173 0.0 0.0 0.00 0.00 0.00 92 999.5
20260903105720 72 173 0.0 0.0 0.00 0.00 0.00 92 999.4
20260903105217 72 173 0.0 0.0 0.00 0.00 0.00 92 999.4
20260903104718 72 173 0.0 0.0 0.00 0.00 0.00 92 999.3
20260903104219 72 173 0.0 0.0 0.00 0.00 0.00 92 999.4
20260903103717 72 173 0.0 0.0 0.00 0.00 0.00 92 999.3
20260903103449 72 173 0.0 0.0 0.00 0.00 0.00 92 999.3
20260903102717 72 173 0.0 0.0 0.00 0.00 0.00 92 999.3
20260903102220 72 173 0.0 0.0 0.00 0.00 0.00 92 999.3
20260903101718 72 173 0.0 0.0 0.00 0.00 0.00 92 999.3
20260903101449 72 173 0.0 0.0 0.00 0.00 0.00 91 999.4
20260903100950 72 173 0.0 0.0 0.00 0.00 0.00 91 999.5
20260903100449 72 173 0.0 0.0 0.00 0.00 0.00 91 999.3
20260903095715 73 173 0.0 0.0 0.00 0.00 0.00 91 999.3
20260903095217 73 173 0.0 0.0 0.00 0.00 0.00 91 999.2
20260903094717 73 173 0.0 0.0 0.00 0.00 0.00 91 999.2
20260903093717 73 173 0.0 0.0 0.00 0.00 0.00 91 999.2
20260903093217 73 173 0.0 0.0 0.00 0.00 0.00 91 999.2
20260903092716 73 173 0.0 0.0 0.00 0.00 0.00 91 999.2
20260903092217 73 173 0.0 0.0 0.00 0.00 0.00 91 999.2
20260903091713 73 173 0.0 0.0 0.00 0.00 0.00 90 999.3
20260903091445 73 173 0.0 0.0 0.00 0.00 0.00 90 999.2
20260903090717 73 173 0.0 0.0 0.00 0.00 0.00 90 999.2
20260903090216 73 173 0.0 0.0 0.00 0.00 0.00 90 999.2
20260903085716 73 173 0.0 0.0 0.00 0.00 0.00 90 999.2
20260903085216 73 173 0.0 0.0 0.00 0.00 0.00 90 999.3
20260903084715 74 173 0.0 0.0 0.00 0.00 0.00 90 999.3
20260903084216 74 173 0.0 0.0 0.00 0.00 0.00 89 999.2
20260903083713 74 173 0.0 0.0 0.00 0.00 0.00 89 999.1
20260903083445 74 173 0.0 0.0 0.00 0.00 0.00 89 999.1
20260903082716 74 173 0.0 0.0 0.00 0.00 0.00 89 999.0
20260903082215 74 173 0.0 0.0 0.00 0.00 0.00 89 999.0
20260903081716 74 173 0.0 0.0 0.00 0.00 0.00 89 999.0
20260903081216 74 173 0.0 0.0 0.00 0.00 0.00 89 999.0
20260903080715 74 173 0.0 0.0 0.00 0.00 0.00 88 999.0
20260903080215 74 173 0.0 0.0 0.00 0.00 0.00 88 998.9
20260903075728 74 173 0.0 0.0 0.00 0.00 0.00 88 998.9
20260903075447 74 173 0.0 0.0 0.00 0.00 0.00 88 998.9
20260903074715 75 173 0.0 0.0 0.00 0.00 0.00 88 998.8
20260903074215 75 173 0.0 0.0 0.00 0.00 0.00 88 998.9
20260903073716 75 173 0.0 0.0 0.00 0.00 0.00 88 998.8
20260903073214 75 173 0.0 0.0 0.00 0.00 0.00 88 998.8
20260903072945 75 173 0.0 0.0 0.00 0.00 0.00 88 998.9
20260903072213 75 173 0.0 0.0 0.00 0.00 0.00 87 998.9
20260903071714 75 173 0.0 0.0 0.00 0.00 0.00 87 998.9
20260903071446 75 173 0.0 0.0 0.00 0.00 0.00 87 998.8
20260903070713 75 173 0.0 0.0 0.00 0.00 0.00 87 998.9
20260903070215 75 173 0.0 0.0 0.00 0.00 0.00 87 998.8
20260903065711 76 173 0.0 0.0 0.00 0.00 0.00 86 998.8
20260903065213 76 173 0.0 0.0 0.00 0.00 0.00 86 998.9
20260903064717 76 173 0.0 0.0 0.00 0.00 0.00 86 998.8
20260903064213 76 173 0.0 0.0 0.00 0.00 0.00 86 998.9
20260903063944 76 173 0.0 0.0 0.00 0.00 0.00 86 998.9
20260903063213 76 173 0.0 0.0 0.00 0.00 0.00 85 998.9
20260903062713 76 173 0.0 0.0 0.00 0.00 0.00 85 998.9
20260903062212 76 173 0.0 0.0 0.00 0.00 0.00 85 999.0
20260903061713 76 173 0.0 0.0 0.00 0.00 0.00 85 999.0
20260903061213 76 173 0.0 0.0 0.00 0.00 0.00 85 999.0
20260903060713 76 173 0.0 0.0 0.00 0.00 0.00 85 999.0
20260903060212 77 173 0.0 0.0 0.00 0.00 0.00 85 999.0
20260903055713 77 173 0.0 0.0 0.00 0.00 0.00 84 999.1
20260903055212 77 173 0.0 0.0 0.00 0.00 0.00 83 999.0
20260903054210 77 173 0.0 0.0 0.00 0.00 0.00 83 999.0
20260903053711 77 173 0.0 0.0 0.00 0.00 0.00 82 999.1
20260903053442 77 173 0.0 0.0 0.00 0.00 0.00 82 999.2
20260903052711 78 173 0.0 0.0 0.00 0.00 0.00 82 999.0
20260903052210 78 173 0.0 0.0 0.00 0.00 0.00 82 999.0
20260903051710 78 173 0.0 0.0 0.00 0.00 0.00 82 999.0
20260903051210 78 173 0.0 0.0 0.00 0.00 0.00 82 998.9
20260903050709 78 173 0.0 0.0 0.00 0.00 0.00 82 998.9
20260903050442 78 173 0.0 0.0 0.00 0.00 0.00 81 998.8
20260903045710 78 173 0.0 0.0 0.00 0.00 0.00 81 998.8
20260903045210 78 173 0.0 0.0 0.00 0.00 0.00 81 998.8
20260903044710 78 173 0.0 0.0 0.00 0.00 0.00 81 998.7
20260903044210 78 173 0.0 0.0 0.00 0.00 0.00 81 998.8
20260903043709 79 173 0.0 0.0 0.00 0.00 0.00 80 998.8
20260903043210 79 173 0.0 2.0 0.00 0.00 0.00 80 998.8
20260903042709 79 173 1.0 2.0 0.00 0.00 0.00 80 998.8
20260903042211 79 173 0.0 0.0 0.00 0.00 0.00 79 998.8
20260903041709 79 173 0.0 0.0 0.00 0.00 0.00 79 998.7
20260903041209 79 173 0.0 0.0 0.00 0.00 0.00 79 998.7
20260903040709 79 173 0.0 1.0 0.00 0.00 0.00 79 998.7
20260903040211 80 173 0.0 2.0 0.00 0.00 0.00 78 998.7
20260903035708 80 173 1.0 2.0 0.00 0.00 0.00 78 998.8
20260903035208 80 173 0.0 1.0 0.00 0.00 0.00 78 998.6
20260903034707 80 173 0.0 0.0 0.00 0.00 0.00 77 998.7
20260903034208 80 173 0.0 2.0 0.00 0.00 0.00 77 998.8
20260903033707 80 173 0.0 2.0 0.00 0.00 0.00 77 998.8
20260903033440 81 173 0.0 1.0 0.00 0.00 0.00 76 998.7
20260903032707 81 173 0.0 0.0 0.00 0.00 0.00 75 998.8
20260903032207 81 173 0.0 0.0 0.00 0.00 0.00 74 998.7
20260903031707 82 173 0.0 0.0 0.00 0.00 0.00 74 998.7
20260903031208 82 173 0.0 0.0 0.00 0.00 0.00 74 998.7
20260903030710 82 173 0.0 1.0 0.00 0.00 0.00 74 998.7
20260903030207 82 173 0.0 1.0 0.00 0.00 0.00 73 998.7
20260903025707 82 173 0.0 0.0 0.00 0.00 0.00 73 998.7
20260903025207 83 173 0.0 0.0 0.00 0.00 0.00 72 998.6
20260903024707 83 173 0.0 0.0 0.00 0.00 0.00 72 998.7
20260903024437 83 173 0.0 2.0 0.00 0.00 0.00 71 998.7
20260903023938 83 173 0.0 2.0 0.00 0.00 0.00 71 998.6
20260903023206 83 173 0.0 2.0 0.00 0.00 0.00 71 998.5
20260903022706 84 173 1.0 2.0 0.00 0.00 0.00 70 998.5
20260903022206 84 173 1.0 2.0 0.00 0.00 0.00 70 998.5
20260903021705 84 173 0.0 0.0 0.00 0.00 0.00 69 998.4
20260903021206 85 173 0.0 0.0 0.00 0.00 0.00 68 998.4
20260903020707 85 173 0.0 0.0 0.00 0.00 0.00 67 998.3
20260903020207 86 173 0.0 0.0 0.00 0.00 0.00 66 998.2
20260903015706 87 173 0.0 0.0 0.00 0.00 0.00 65 998.3
20260903015205 87 173 0.0 0.0 0.00 0.00 0.00 64 998.1
20260903014705 87 173 0.0 0.0 0.00 0.00 0.00 63 998.1
20260903014205 88 173 0.0 0.0 0.00 0.00 0.00 62 998.0
20260903013705 89 173 0.0 0.0 0.00 0.00 0.00 61 997.8
20260903013205 89 173 0.0 0.0 0.00 0.00 0.00 60 997.8
20260903012704 90 173 0.0 0.0 0.00 0.00 0.00 58 997.7
20260903012204 90 173 0.0 0.0 0.00 0.00 0.00 58 997.6
20260903011706 91 173 0.0 0.0 0.00 0.00 0.00 57 997.6
20260903011205 91 173 0.0 1.0 0.00 0.00 0.00 55 997.5
20260903010704 91 173 0.0 2.0 0.00 0.00 0.00 55 997.5
20260903010204 92 173 0.0 3.0 0.00 0.00 0.00 55 997.5
20260903005934 92 173 1.0 3.0 0.00 0.00 0.00 54 997.5
20260903005203 92 173 1.0 2.0 0.00 0.00 0.00 54 997.3
20260903004705 92 173 1.0 4.0 0.00 0.00 0.00 53 997.3
20260903004204 93 173 1.0 4.0 0.00 0.00 0.00 53 997.3
20260903003935 93 190 2.0 6.0 0.00 0.00 0.00 52 997.2
20260903003435 93 227 2.0 6.0 0.00 0.00 0.00 52 997.3
20260903002703 94 238 2.0 6.0 0.00 0.00 0.00 52 997.2
20260903002202 94 244 3.0 6.0 0.00 0.00 0.00 52 997.3
20260903001703 94 233 2.0 5.0 0.00 0.00 0.00 51 997.2
20260903001203 94 206 2.0 4.0 0.00 0.00 0.00 51 997.2
20260903000702 95 214 2.0 4.0 0.00 0.00 0.00 51 997.3
20260903000204 95 214 2.0 9.0 0.00 0.00 0.00 51 997.2
20260902235703 95 255 4.0 9.0 0.00 0.00 0.00 51 997.4
20260902235201 95 213 2.0 5.0 0.00 0.00 0.00 50 997.3
20260902234703 95 192 2.0 6.0 0.00 0.00 0.00 50 997.4
20260902234203 95 254 3.0 7.0 0.00 0.00 0.00 50 997.4
20260902233702 95 240 4.0 7.0 0.00 0.00 0.00 50 997.4
20260902233202 96 245 4.0 5.0 0.00 0.00 0.00 50 997.4
20260902232702 96 193 5.0 6.0 0.00 0.00 0.00 50 997.4
20260902232201 96 193 5.0 6.0 0.00 0.00 0.00 50 997.4
20260902231700 96 247 4.0 9.0 0.00 0.00 0.00 50 997.4
20260902231200 96 220 4.0 10.0 0.00 0.00 0.00 49 997.5
20260902230659 96 195 5.0 11.0 0.00 0.00 0.00 49 997.4
20260902230200 96 200 6.0 11.0 0.00 0.00 0.00 49 997.3
20260902225703 97 219 6.0 13.0 0.00 0.00 0.00 49 997.3
20260902225159 97 252 7.0 16.0 0.00 0.00 0.00 48 997.3
20260902224659 97 245 8.0 16.0 0.00 0.00 0.00 48 997.2
20260902224158 98 268 8.0 13.0 0.00 0.00 0.00 48 997.2
20260902223659 97 251 8.0 13.0 0.00 0.00 0.00 48 997.2
20260902223159 97 220 4.0 10.0 0.00 0.00 0.00 49 997.2
20260902222928 97 216 4.0 10.0 0.00 0.00 0.00 49 997.2
20260902222158 97 237 6.0 10.0 0.00 0.00 0.00 49 997.2
20260902221929 97 212 6.0 10.0 0.00 0.00 0.00 48 997.3
20260902221158 97 217 4.0 9.0 0.00 0.00 0.00 48 997.3
20260902220658 97 266 5.0 9.0 0.00 0.00 0.00 48 997.3
20260902220200 97 265 5.0 11.0 0.00 0.00 0.00 48 997.3
20260902215658 98 237 5.0 11.0 0.00 0.00 0.00 47 997.3
20260902215158 98 241 5.0 9.0 0.00 0.00 0.00 47 997.2
20260902214430 99 262 4.0 12.0 0.00 0.00 0.00 45 997.2
20260902213659 99 254 6.0 12.0 0.00 0.00 0.00 45 997.3
20260902213157 99 58 2.0 4.0 0.00 0.00 0.00 45 997.2
20260902212929 99 226 2.0 6.0 0.00 0.00 0.00 46 997.4
20260902212200 99 217 4.0 10.0 0.00 0.00 0.00 45 997.4
20260902211656 99 258 6.0 11.0 0.00 0.00 0.00 45 997.5
20260902211427 99 279 5.0 12.0 0.00 0.00 0.00 45 997.5
20260902210655 99 247 6.0 12.0 0.00 0.00 0.00 45 997.4
20260902205657 99 288 2.0 4.0 0.00 0.00 0.00 45 997.6
20260902205157 99 87 2.0 4.0 0.00 0.00 0.00 45 997.6
20260902204658 98 212 0.0 3.0 0.00 0.00 0.00 46 997.7
20260902204156 98 212 1.0 4.0 0.00 0.00 0.00 46 997.8
20260902203657 98 212 2.0 6.0 0.00 0.00 0.00 46 997.8
20260902203158 98 216 2.0 6.0 0.00 0.00 0.00 46 997.9
20260902202656 98 254 3.0 6.0 0.00 0.00 0.00 46 998.0
20260902202155 98 159 3.0 6.0 0.00 0.00 0.00 46 998.0
20260902201659 99 209 2.0 4.0 0.00 0.00 0.00 44 998.0
20260902201156 0 0.0 0.0 0.00 0.00 0.00 998.0
20260902200657 100 172 4.0 5.0 0.00 0.00 0.00 43 998.1
20260902200154 100 172 4.0 5.0 0.00 0.00 0.00 43 998.2
20260902195654 100 259 3.0 9.0 0.00 0.00 0.00 43 998.2
20260902195152 100 274 1.0 9.0 0.00 0.00 0.00 43 998.3
20260902194654 100 285 4.0 7.0 0.00 0.00 0.00 44 998.4
20260902194153 100 279 3.0 9.0 0.00 0.00 0.00 44 998.5
20260902193653 100 214 3.0 9.0 0.00 0.00 0.00 44 998.5
20260902193152 99 247 5.0 10.0 0.00 0.00 0.00 45 998.5
20260902192652 99 264 6.0 10.0 0.00 0.00 0.00 44 998.7
20260902192152 99 250 6.0 10.0 0.00 0.00 0.00 44 998.7
20260902191653 98 207 3.0 9.0 0.00 0.00 0.00 45 998.8
20260902191152 98 245 5.0 10.0 0.00 0.00 0.00 44 998.9
20260902190653 99 228 6.0 10.0 0.00 0.00 0.00 43 998.9
20260902190155 99 265 3.0 6.0 0.00 0.00 0.00 44 999.0
20260902185652 98 193 3.0 9.0 0.00 0.00 0.00 43 999.0
20260902185152 98 292 4.0 9.0 0.00 0.00 0.00 45 999.0
20260902184650 98 259 2.0 10.0 0.00 0.00 0.00 43 999.2